Orbital Elements at Epoch 2459000.5 (2020-May-31.0) TDB
Reference: JPL 19 (heliocentric ecliptic J2000)
Element | Value | Uncertainty (1-sigma) | Units |
e | .1303587707607768 | 6.271e-08 | |
a | 3.032822029831849 | 2.5462e-08 | au |
q | 2.637467078086765 | 1.9309e-07 | au |
i | 11.63109401983251 | 6.106e-06 | deg |
node | 185.1536549997313 | 2.7215e-05 | deg |
peri | 216.0100800766037 | 3.4245e-05 | deg |
M | 35.83843849525349 | 1.7958e-05 | deg |
tp | 2458808.449521264009 (2019-Nov-20.94952126) | 9.6289e-05 | TDB |
period | 1929.162520686097 5.28 | 2.4294e-05 6.651e-08 | d yr |
n | .1866094723175359 | 2.35e-09 | deg/d |
Q | 3.428176981576932 | 2.8781e-08 | au |
|
| | Orbit Determination Parameters
Additional Information
|